Temp
-4 -6 -7 -7 -7 -7 -6 -6 -3 -3 -0 1 0 -1 -1 -0 0 1 2 3 4 5 7 7 7 8 8 8 9 10 9 9 11 11 11 12 12 12 12 12 12 12 12
-4 -5 -7 -8 -8 -8 -8 -8 -7 -5 -4 -2 -3 -3 -3 -3 -2 -1 0 1 2 3 3 4 4 5 6 6 6 7 8 7 7 7 9 12 11 11 11 11 11 11 12
-5 -5 -7 -8 -9 -9 -9 -9 -9 -7 -6 -5 -3 -3 -3 -3 -2 -2 -2 -1 -0 1 2 1 2 2 3 3 2 3 4 3 6 6 6 9 9 9 10 11 10 10 10
-5 -6 -7 -8 -9 -10 -10 -10 -9 -8 -7 -5 -5 -5 -7 -7 -7 -6 -5 -3 -2 -1 -1 -0 0 0 0 1 -1 -0 0 1 1 5 5 5 5 8 9 10 9 9 9
-6 -7 -8 -9 -10 -10 -10 -11 -10 -9 -8 -7 -6 -7 -7 -8 -7 -6 -5 -5 -4 -3 -3 -2 -2 -1 -1 -1 -2 -2 -1 -1 -1 0 1 2 4 3 5 8 7 6 8
-7 -8 -8 -9 -10 -10 -10 -10 -10 -10 -9 -8 -8 -7 -7 -8 -7 -7 -6 -6 -6 -5 -4 -4 -3 -3 -3 -2 -2 -3 -3 -3 -3 -2 -2 -1 1 1 1 3 3 4 5
-8 -9 -10 -9 -11 -11 -11 -11 -11 -11 -10 -9 -9 -9 -8 -8 -8 -9 -9 -8 -8 -7 -6 -5 -5 -4 -4 -4 -3 -3 -4 -5 -5 -4 -4 -3 -3 -3 -1 -0 -0 1 2
-7 -9 -10 -11 -11 -12 -12 -11 -11 -11 -10 -10 -10 -9 -9 -9 -9 -9 -9 -9 -9 -8 -7 -6 -6 -5 -5 -5 -4 -5 -5 -5 -6 -6 -5 -5 -5 -5 -4 -3 -2 -0 1
-9 -10 -11 -12 -13 -13 -12 -12 -12 -12 -11 -11 -11 -10 -10 -9 -10 -9 -9 -9 -9 -8 -7 -7 -6 -6 -6 -6 -5 -6 -6 -6 -7 -7 -7 -7 -7 -7 -6 -6 -5 -4 -1
-9 -11 -12 -13 -13 -13 -13 -12 -12 -12 -12 -11 -11 -11 -11 -10 -10 -10 -9 -9 -9 -9 -8 -8 -7 -7 -7 -7 -7 -7 -7 -7 -7 -8 -8 -8 -8 -8 -8 -8 -7 -6 -5
-10 -11 -12 -13 -13 -13 -13 -13 -12 -12 -12 -12 -11 -11 -11 -11 -11 -10 -10 -10 -10 -9 -9 -9 -8 -8 -8 -8 -8 -8 -9 -9 -9 -9 -10 -9 -9 -9 -9 -9 -8 -7 -7
-10 -12 -13 -13 -14 -13 -13 -13 -13 -12 -12 -12 -12 -12 -12 -12 -11 -11 -11 -11 -11 -11 -10 -10 -10 -10 -9 -9 -10 -10 -10 -10 -10 -10 -10 -10 -10 -10 -10 -9 -9 -8 -8
-11 -12 -13 -14 -14 -14 -13 -13 -13 -13 -13 -12 -12 -12 -12 -12 -12 -12 -12 -12 -12 -12 -11 -11 -11 -10 -10 -10 -10 -11 -11 -11 -11 -11 -11 -11 -11 -11 -10 -10 -9 -8 -8
-11 -12 -13 -14 -14 -14 -13 -13 -13 -13 -13 -13 -13 -13 -13 -13 -13 -13 -13 -12 -12 -12 -12 -11 -11 -11 -11 -11 -11 -11 -11 -11 -11 -12 -12 -12 -12 -11 -10 -10 -9 -8 -9
-11 -12 -14 -15 -14 -14 -13 -13 -13 -14 -13 -13 -13 -13 -13 -13 -13 -13 -13 -12 -13 -13 -12 -12 -12 -12 -11 -11 -12 -11 -11 -11 -12 -12 -12 -12 -12 -11 -11 -9 -10 -9 -9
-11 -13 -14 -14 -14 -13 -13 -13 -14 -14 -14 -13 -13 -13 -13 -13 -13 -13 -13 -13 -13 -13 -13 -13 -13 -12 -12 -12 -13 -11 -11 -12 -12 -12 -12 -12 -12 -12 -11 -11 -10 -9 -8
-12 -13 -14 -13 -13 -13 -13 -13 -14 -14 -14 -14 -13 -13 -13 -13 -13 -13 -13 -13 -13 -13 -13 -13 -13 -13 -13 -13 -13 -12 -12 -12 -12 -13 -13 -12 -12 -12 -12 -11 -10 -10 -9
-12 -13 -13 -13 -13 -14 -14 -14 -14 -14 -14 -14 -13 -13 -13 -13 -13 -13 -13 -13 -14 -14 -14 -14 -14 -14 -13 -14 -14 -13 -12 -13 -13 -13 -13 -13 -12 -12 -12 -10 -9 -9 -9
-13 -13 -13 -13 -13 -14 -14 -14 -14 -14 -14 -13 -13 -13 -13 -13 -13 -13 -13 -13 -14 -14 -14 -14 -14 -14 -14 -14 -14 -13 -14 -14 -14 -13 -13 -13 -12 -12 -10 -9 -9 -9 -9
-14 -13 -14 -14 -14 -14 -15 -15 -14 -14 -13 -13 -13 -13 -13 -14 -14 -14 -14 -14 -14 -14 -14 -15 -15 -14 -15 -15 -15 -14 -14 -13 -13 -13 -13 -12 -11 -10 -10 -9 -9 -10 -10
-14 -14 -14 -14 -14 -14 -15 -14 -14 -13 -13 -13 -13 -13 -13 -14 -14 -14 -14 -14 -14 -15 -15 -15 -15 -15 -15 -15 -15 -14 -13 -13 -13 -12 -12 -12 -11 -11 -10 -9 -10 -10 -9
-15 -15 -15 -14 -14 -14 -14 -13 -13 -12 -13 -14 -14 -13 -13 -14 -15 -15 -15 -15 -15 -15 -15 -16 -15 -15 -15 -14 -15 -15 -13 -13 -12 -12 -12 -12 -11 -11 -10 -9 -10 -10 -10
-15 -14 -14 -13 -13 -13 -13 -14 -13 -14 -14 -14 -14 -14 -14 -15 -15 -16 -16 -16 -16 -16 -17 -17 -17 -17 -17 -16 -15 -15 -13 -12 -12 -12 -12 -11 -11 -10 -11 -10 -11 -11 -13
-14 -14 -14 -14 -14 -14 -14 -14 -14 -15 -15 -15 -15 -15 -16 -16 -16 -16 -16 -17 -17 -17 -17 -18 -18 -17 -17 -16 -14 -13 -13 -13 -13 -13 -11 -11 -11 -10 -11 -11 -12 -13 -14
-15 -15 -15 -15 -14 -15 -15 -15 -16 -16 -16 -17 -17 -17 -17 -17 -17 -17 -17 -18 -17 -18 -18 -17 -17 -17 -17 -14 -14 -14 -14 -13 -12 -12 -12 -13 -13 -13 -13 -13 -13 -14 -15
-15 -15 -16 -16 -16 -16 -16 -16 -16 -17 -17 -18 -18 -18 -17 -18 -18 -18 -18 -18 -16 -15 -15 -14 -13 -13 -14 -14 -13 -12 -11 -11 -10 -11 -11 -11 -13 -14 -14 -15 -15 -15 -15
Height
906 904 902 902 901 896 894 893 890 889 888 888 887 888 888 888 887 888 889 887 887 887 887 887 887 886 885 885 885 884 884 884 884 884 882 880 880 879 880 879 878 879 880
906 907 906 905 903 901 899 897 895 892 890 889 890 891 892 892 892 892 892 891 891 889 889 888 888 888 888 887 886 885 885 886 887 887 885 881 880 880 879 880 880 880 879
908 909 909 908 907 904 903 901 900 896 894 893 893 893 894 894 895 895 894 895 894 893 892 891 891 891 890 889 890 889 888 889 889 890 890 886 884 884 880 880 879 879 879
909 910 910 911 909 908 906 905 902 900 898 896 895 895 896 898 900 900 899 898 897 896 896 895 894 894 893 892 892 892 892 892 891 890 890 891 892 888 882 880 880 880 880
909 911 912 913 912 910 909 908 906 904 902 900 899 899 900 902 903 903 902 901 901 900 899 899 898 897 896 896 895 896 895 895 895 895 893 890 891 890 890 882 882 881 881
909 912 913 914 913 912 912 910 909 907 906 904 903 902 903 904 904 904 904 904 904 903 902 902 901 900 899 898 898 898 898 898 898 898 897 897 897 895 894 891 887 884 880
909 912 913 915 914 914 914 913 912 910 910 909 907 906 906 906 906 907 907 907 906 905 905 904 903 902 902 901 900 900 899 899 899 899 899 900 899 899 897 894 890 886 880
907 911 913 914 915 915 915 914 914 913 913 912 911 910 909 909 909 910 909 909 909 909 908 907 906 905 904 903 902 901 901 901 901 900 900 900 899 899 898 896 893 885 882
906 910 912 914 915 915 915 915 915 915 914 914 913 912 912 911 911 912 912 911 911 911 910 909 908 907 906 905 903 902 902 901 901 900 900 899 898 897 896 895 894 893 885
905 909 913 914 915 915 916 917 917 917 916 916 915 914 914 914 914 914 913 913 913 912 911 910 909 908 907 906 905 904 903 902 902 901 900 899 898 897 895 894 893 892 891
903 908 912 914 915 915 916 917 918 918 917 917 916 916 916 916 915 915 915 914 914 913 912 911 909 908 907 906 905 905 904 903 902 901 900 899 898 896 894 892 891 889 888
902 907 911 914 915 916 917 918 918 918 918 918 918 917 917 917 916 916 915 915 914 913 912 911 910 908 907 906 906 905 904 903 902 901 899 898 896 895 893 891 889 887 885
902 907 911 913 914 915 916 917 917 917 918 918 918 918 917 917 916 916 915 915 914 913 912 911 909 908 907 906 905 905 904 902 901 900 898 896 894 893 891 889 887 885 882
900 906 910 912 913 914 915 916 917 917 917 918 917 917 916 916 915 915 914 914 913 913 912 910 909 907 906 905 904 903 903 901 899 898 896 894 892 890 888 886 884 882 879
900 905 909 910 912 913 914 915 915 916 916 916 916 915 915 915 914 914 914 913 913 912 911 909 908 906 904 903 902 902 900 898 896 894 893 890 889 887 885 883 881 879 876
900 904 907 910 911 912 913 914 915 915 914 914 914 914 914 913 913 913 912 912 911 910 909 907 905 904 902 900 900 900 897 895 892 890 888 886 884 882 881 879 878 876 873
898 903 906 909 910 911 912 912 912 912 913 912 912 912 912 911 911 910 909 909 908 906 905 903 902 900 898 897 897 896 894 891 888 886 884 882 880 879 876 874 873 872 870
897 902 905 907 908 909 910 910 911 911 911 910 910 910 909 908 908 907 906 905 904 902 901 899 898 896 894 893 892 891 889 885 883 882 880 878 875 874 872 869 867 866 864
897 901 903 905 906 907 908 909 909 909 908 907 907 907 906 905 904 903 902 901 900 898 896 894 892 891 888 888 887 886 883 880 878 876 874 873 871 869 867 865 863 861 858
897 900 902 903 905 906 906 906 906 905 904 904 903 903 902 901 900 899 898 896 894 892 891 888 887 885 883 881 881 880 878 875 873 871 869 867 866 863 862 860 858 855 854
896 899 900 901 902 903 902 902 902 901 901 900 899 898 897 896 895 893 891 890 888 886 884 881 879 877 876 874 873 873 872 870 867 865 863 861 860 858 856 854 851 850 849
896 898 898 899 899 899 898 897 896 897 896 895 894 892 891 889 888 886 884 882 880 878 876 874 871 870 868 867 865 865 864 863 860 858 856 855 853 851 849 847 845 845 844
895 895 895 894 896 896 895 894 893 893 891 890 888 886 885 883 882 880 878 876 874 872 869 868 865 862 861 859 858 857 856 855 852 850 848 847 844 842 841 840 841 841 839
892 893 893 893 894 894 893 893 891 889 887 885 883 881 879 877 875 873 872 870 868 866 863 861 859 856 853 851 850 848 847 846 844 842 840 838 837 836 834 834 834 835 835
893 893 893 892 891 890 889 888 886 884 882 880 878 875 873 871 869 867 866 863 861 860 857 853 850 847 843 842 841 841 837 836 834 833 830 828 828 828 827 828 828 828 828
892 892 891 890 888 886 884 882 880 879 877 874 872 870 868 866 863 860 856 856 855 852 849 846 842 838 834 832 831 830 828 826 824 822 820 819 819 820 821 822 822 821 820
Wind_Speed
10 13 15 15 15 19 19 19 17 15 13 12 13 17 21 22 23 22 21 20 19 19 19 19 19 19 19 19 16 10 11 12 12 9 12 11 3 8 15 16 12 4 7
8 12 14 15 16 16 18 19 19 17 16 16 16 13 14 22 23 23 23 22 21 20 20 19 19 19 17 16 18 17 12 11 16 8 6 3 3 7 11 14 10 14 17
6 8 12 14 15 16 17 17 17 19 19 17 15 15 15 17 21 23 23 25 23 21 21 20 19 19 18 18 18 18 16 11 8 11 7 4 3 11 4 7 16 17 18
8 8 9 11 13 14 13 15 17 18 20 19 21 20 20 15 16 18 20 22 23 23 22 21 20 20 19 18 18 17 16 12 12 6 9 5 5 3 4 5 12 14 16
8 8 9 9 10 12 15 15 17 19 20 22 22 21 20 17 17 17 19 21 23 23 23 23 22 22 21 18 17 16 17 15 12 12 10 7 7 8 4 5 9 16 11
10 10 9 8 10 11 14 15 17 20 21 21 22 23 21 19 18 20 19 20 21 23 23 23 23 22 21 20 17 15 15 14 13 12 12 11 7 10 7 4 12 14 12
9 10 9 8 9 10 11 12 16 18 19 21 22 21 21 21 21 19 19 18 19 22 23 22 22 22 21 19 17 17 16 15 14 13 11 10 10 9 9 9 11 8 12
10 11 9 8 8 9 11 12 13 16 17 18 20 20 19 20 20 19 19 20 18 19 19 20 20 19 19 18 16 17 16 14 13 14 13 9 11 10 10 9 12 6 7
10 12 10 9 9 9 10 11 12 13 15 15 17 18 18 18 18 17 17 18 17 16 17 17 17 18 17 17 16 15 16 15 13 12 13 12 11 11 11 10 9 8 4
11 12 10 9 9 9 10 10 11 12 13 13 14 14 15 15 15 14 15 15 15 15 15 16 16 16 16 15 14 13 14 14 13 12 12 13 13 13 12 12 10 8 9
11 12 10 9 9 9 9 9 10 10 11 11 11 11 11 12 12 13 13 13 13 14 14 15 15 15 14 14 12 11 12 13 13 13 12 13 14 14 13 13 11 11 10
11 13 11 9 8 7 7 7 7 8 8 9 8 9 9 8 9 11 11 11 12 13 13 14 14 14 13 13 12 12 13 13 13 12 12 14 15 14 13 13 14 12 14
11 11 10 8 7 7 6 5 5 5 6 6 6 6 7 7 8 9 10 10 11 11 12 13 14 14 14 12 11 12 13 13 12 12 13 15 14 14 14 14 13 15 14
12 10 9 8 7 5 5 4 3 3 3 4 5 5 6 7 7 8 10 10 11 12 12 12 14 14 13 12 12 13 13 14 14 15 15 15 13 14 16 15 14 15 18
11 8 9 9 7 5 4 3 1 1 2 4 5 5 5 6 6 7 9 10 11 12 13 13 13 14 14 13 14 14 15 15 17 17 18 14 13 14 13 15 16 17 18
11 10 9 8 6 5 4 2 1 2 4 6 6 6 6 6 7 8 9 11 12 13 13 14 15 15 15 14 13 14 16 16 18 21 19 15 16 13 14 15 14 14 18
10 9 10 6 4 4 3 2 3 5 6 8 7 8 8 9 9 10 12 13 15 16 16 17 17 18 16 15 15 16 16 19 20 20 18 18 15 15 14 13 15 15 15
8 11 9 4 3 3 3 4 6 7 9 10 10 10 11 13 13 14 15 16 17 18 19 19 19 19 18 15 17 16 18 21 20 17 17 18 18 14 16 19 19 18 21
12 11 6 3 3 4 4 7 8 9 12 13 13 13 13 16 16 18 18 19 20 21 21 21 21 20 22 18 16 18 19 18 18 18 19 17 18 17 15 19 20 22 24
10 6 3 3 4 3 5 9 11 12 14 14 15 16 16 17 19 20 21 22 22 23 23 23 22 22 22 22 20 19 18 19 19 18 17 17 17 17 18 19 20 15 11
4 3 3 4 4 5 9 12 13 16 16 16 17 19 19 20 22 23 23 24 25 26 27 27 27 26 25 25 21 19 20 20 20 20 19 17 18 19 19 19 16 13 16
3 1 3 5 6 8 11 15 19 18 18 18 20 23 24 25 23 25 27 27 28 29 29 29 30 29 28 24 21 21 20 21 24 23 22 20 21 20 21 21 12 17 20
2 4 8 10 10 11 13 17 20 20 20 21 23 24 26 26 26 24 24 23 24 26 26 22 23 24 22 24 23 20 20 23 25 25 23 22 26 25 18 20 16 17 14
8 9 10 13 14 13 14 16 19 20 20 22 24 25 26 26 24 25 25 23 23 23 23 23 23 23 23 24 24 24 25 25 26 25 24 25 24 24 20 16 18 15 15
5 6 9 13 17 17 19 19 19 19 21 22 24 25 24 24 25 25 24 23 26 24 25 28 29 28 29 33 27 24 26 25 24 27 31 32 25 20 20 18 18 16 17
7 9 11 13 17 19 21 21 20 18 19 21 19 19 20 21 22 23 26 24 24 25 27 29 30 29 29 29 29 31 31 31 31 30 23 20 16 14 11 13 16 17 20
Wind_Direction
62 47 41 35 36 43 43 43 50 58 83 97 82 73 72 73 75 71 65 62 62 63 61 57 53 50 49 45 40 42 39 30 12 351 343 318 330 73 10 40 23 334 7
69 55 47 41 39 40 40 42 44 53 68 82 85 89 88 73 73 69 65 62 60 60 60 59 57 53 49 46 40 39 34 39 31 13 323 345 357 16 352 7 51 39 6
97 71 55 48 44 43 39 42 44 52 65 76 98 100 89 80 68 65 64 58 59 59 59 57 56 54 53 48 40 36 36 12 24 43 25 348 7 339 338 17 4 357 3
109 92 73 57 52 47 51 49 54 56 62 74 81 80 77 71 60 62 63 61 59 60 59 57 55 53 54 53 46 40 41 38 19 15 4 29 348 325 314 337 333 346 349
127 106 88 77 66 58 59 60 62 63 65 72 78 80 77 74 72 71 69 63 59 57 58 57 56 55 54 53 51 42 43 46 39 30 1 357 4 19 329 306 323 327 328
133 118 104 90 73 74 68 68 66 65 68 72 74 75 77 72 70 64 61 57 55 52 53 52 52 52 51 50 51 50 48 44 44 39 37 32 15 354 356 321 318 312 315
140 131 116 99 80 68 72 65 70 67 69 69 72 72 71 70 64 60 55 52 47 43 43 44 44 45 46 47 49 49 49 44 44 38 34 36 29 8 349 324 327 318 313
145 132 123 110 94 80 76 76 73 71 70 71 70 70 69 66 63 58 55 51 48 41 39 41 40 39 39 41 43 44 45 41 39 37 36 32 22 16 9 352 338 320 316
146 137 126 114 106 91 82 79 79 74 71 71 70 67 66 63 60 55 51 48 44 39 34 34 34 33 32 34 35 35 34 32 31 25 22 22 14 10 6 1 354 347 321
144 140 136 124 113 103 89 86 80 76 72 69 68 64 62 59 54 49 45 39 35 30 27 25 25 25 25 26 28 29 25 22 22 13 10 8 2 356 355 350 344 336 309
153 147 140 130 116 109 98 88 83 78 72 67 65 62 57 52 45 40 36 30 23 21 17 16 14 13 15 16 20 22 13 14 8 3 357 354 351 345 343 341 338 328 322
148 146 143 139 130 115 107 92 82 74 68 62 58 54 48 41 34 30 25 19 15 12 10 8 6 7 10 11 13 12 8 4 356 351 347 343 339 338 335 334 329 322 320
142 143 146 147 142 132 119 102 82 68 59 50 43 37 30 25 22 20 17 12 11 10 8 4 2 2 2 6 9 10 4 355 346 342 337 334 333 330 329 327 321 318 314
150 150 152 154 153 146 135 117 86 59 43 26 18 13 9 8 7 11 10 5 2 359 358 355 353 349 348 350 359 1 349 337 328 329 331 329 325 324 323 320 317 315 314
152 155 157 160 159 157 150 137 103 16 353 345 349 349 348 349 347 344 349 347 345 343 341 340 338 336 332 332 341 337 329 321 319 319 323 322 321 317 316 316 314 314 313
158 152 147 153 167 173 183 203 228 304 320 323 334 329 321 321 323 318 319 328 326 326 326 326 324 326 322 321 316 318 317 313 311 313 317 316 318 322 312 312 311 311 314
164 165 169 171 177 198 223 243 287 302 307 309 312 311 304 304 309 308 307 312 316 315 317 316 315 315 313 313 311 308 305 303 300 303 309 312 313 309 310 318 312 311 311
157 168 180 188 215 238 259 268 286 292 294 296 302 304 301 298 297 297 301 305 308 308 308 308 308 305 305 304 304 301 300 295 292 294 299 302 303 306 306 306 310 312 310
160 165 173 203 249 270 265 272 283 290 294 299 300 299 298 297 296 293 297 300 300 301 301 302 302 300 301 300 299 297 295 288 286 292 296 294 294 298 293 297 302 303 303
142 153 199 240 265 275 271 285 296 297 296 306 303 300 296 292 290 291 292 294 295 294 296 295 293 296 289 293 292 291 286 282 282 284 282 281 281 282 290 290 294 296 313
143 169 229 271 300 308 298 296 301 299 311 307 302 298 296 295 294 293 292 293 294 294 293 293 295 294 293 294 289 284 277 272 276 277 279 277 278 281 282 285 280 305 311
146 188 291 311 327 324 312 309 305 318 314 309 303 299 300 299 294 294 296 295 294 294 292 292 293 292 294 294 286 280 272 269 270 274 276 274 274 275 276 282 299 299 297
38 359 342 333 337 333 320 309 313 316 313 306 301 300 301 299 298 293 289 286 286 284 282 280 280 284 287 289 292 278 271 273 274 274 269 270 272 276 288 289 289 289 293
13 355 340 330 325 327 315 307 312 314 309 304 303 304 302 301 299 296 291 281 276 275 275 274 275 279 282 285 290 287 282 277 271 260 258 266 273 274 279 265 265 266 277
354 337 325 318 319 324 319 321 321 318 309 307 305 303 300 297 297 295 289 284 284 277 275 273 273 269 269 281 281 276 275 275 275 263 263 266 264 254 253 260 263 268 276
344 330 324 321 322 322 322 326 326 322 313 304 297 295 297 294 293 290 290 291 284 284 282 282 281 281 271 273 273 270 269 269 273 276 265 248 235 234 242 255 265 271 274